カタログに戻る

STARLINK-30506

運用中通信VLEO
NORAD 58072·PAYLOAD·🇺🇸 United States

打ち上げ Oct 13, 2023 から Cape Canaveral Space Force Station

Loading…

次のパス (今後24時間)

TLE

最新Source: CelesTrak SupGP

元期: Sep 14, 2026, 22:20 UTC

1 58072C 23158X   26257.93104167  .00034155  00000+0  12370-2 0  2573
2 58072  43.0014  38.4583 0001569 272.8353 321.7693 15.27563567    17

AllMySatでSTARLINK-30506をリアルタイム追跡

Download on the App Store